FW1349 Weather Reports


time (UTC)temp
F
wind
direction
speed
knots
gust
knots
rain 1hr
in
rain 24hr
in
rain mn
in
humidity
%
barometer
mb
20260509063016 52 0.0 0.0 0.00 0.00 0.00 50 904.9
20260509062015 53 0.0 0.0 0.00 0.00 0.00 48 905.0
20260509061015 53 0.0 0.0 0.00 0.00 0.00 47 905.0
20260509060015 54 0.0 0.0 0.00 0.00 0.00 46 905.0
20260509055016 55 0.0 0.0 0.00 0.00 0.00 45 905.0
20260509054015 55 0.0 0.0 0.00 0.00 0.00 43 905.0
20260509053016 56 0.0 0.0 0.00 0.00 0.00 43 905.0
20260509052017 57 0.0 0.0 0.00 0.00 0.00 41 905.0
20260509051017 57 0.0 0.9 0.00 0.00 0.00 40 905.0
20260509050017 58 0.0 0.0 0.00 0.00 0.00 40 904.9
20260509045016 59 0.0 0.0 0.00 0.00 0.00 39 904.9
20260509044016 59 0.0 0.9 0.00 0.00 0.00 38 904.9
20260509043037 60 0.0 0.9 0.00 0.00 0.00 37 904.9
20260509042016 61 0.0 1.7 0.00 0.00 0.00 36 904.9
20260509041016 61 90 0.9 2.6 0.00 0.00 0.00 34 904.9
20260509040016 61 90 0.9 2.6 0.00 0.00 0.00 34 904.9
20260509035037 62 68 1.7 5.2 0.00 0.00 0.00 33 904.9
20260509034016 62 90 1.7 6.1 0.00 0.00 0.00 33 904.9
20260509033017 63 90 3.5 7.0 0.00 0.00 0.00 32 904.9
20260509032016 63 113 1.7 3.5 0.00 0.00 0.00 32 904.9
20260509031016 64 113 1.7 5.2 0.00 0.00 0.00 32 905.0
20260509030016 64 90 2.6 7.8 0.00 0.00 0.00 31 904.9
20260509025037 65 90 3.5 7.0 0.00 0.00 0.00 31 904.9
20260509024016 65 90 3.5 8.7 0.00 0.00 0.00 31 904.9
20260509023036 65 113 3.5 6.1 0.00 0.00 0.00 31 904.9
20260509022016 66 90 3.5 8.7 0.00 0.00 0.00 30 904.9
20260509021037 66 90 2.6 6.1 0.00 0.00 0.00 30 904.9
20260509020016 66 113 2.6 8.7 0.00 0.00 0.00 29 904.9
20260509015016 67 68 1.7 6.1 0.00 0.00 0.00 28 904.9
20260509014016 67 23 0.9 2.6 0.00 0.00 0.00 28 904.9
20260509013016 68 68 1.7 5.2 0.00 0.00 0.00 28 904.8
20260509012016 69 45 1.7 7.0 0.00 0.00 0.00 26 904.8
20260509011016 69 90 1.7 5.2 0.00 0.00 0.00 25 904.8
20260509010015 69 90 3.5 7.8 0.00 0.00 0.00 25 904.6
20260509005016 70 45 2.6 5.2 0.00 0.00 0.00 25 904.7
20260509004016 70 68 1.7 6.1 0.00 0.00 0.00 25 904.7
20260509003015 71 90 3.5 8.7 0.00 0.00 0.00 24 904.6
20260509002015 71 45 2.6 7.8 0.00 0.00 0.00 24 904.6
20260509001016 71 23 3.5 8.7 0.00 0.00 0.00 24 904.6
20260509000036 72 68 5.2 12.2 0.00 0.00 0.00 23 904.7
20260508235015 72 45 3.5 8.7 0.00 0.00 0.00 24 904.7
20260508234036 73 68 4.3 10.4 0.00 0.00 0.00 24 904.7
20260508233036 74 68 1.7 7.8 0.00 0.00 0.00 25 904.7
20260508232017 74 68 2.6 7.8 0.00 0.00 0.00 24 904.8
20260508231018 74 68 2.6 7.0 0.00 0.00 0.00 25 904.8
20260508230017 74 113 4.3 11.3 0.00 0.00 0.00 23 904.8
20260508225017 75 113 3.5 7.8 0.00 0.00 0.00 24 904.8
20260508224017 75 113 2.6 6.1 0.00 0.00 0.00 24 904.8
20260508223018 75 113 3.5 8.7 0.00 0.00 0.00 25 904.8
20260508222017 75 45 1.7 7.8 0.00 0.00 0.00 25 904.8
20260508221018 75 338 2.6 9.6 0.00 0.00 0.00 24 904.8
20260508220017 74 68 1.7 5.2 0.00 0.00 0.00 24 904.8
20260508215017 74 68 2.6 4.3 0.00 0.00 0.00 24 904.8
20260508214017 73 68 4.3 12.2 0.00 0.00 0.00 25 904.8
20260508213037 73 113 1.7 3.5 0.00 0.00 0.00 25 904.8
20260508212037 73 68 2.6 7.8 0.00 0.00 0.00 24 904.8
20260508211017 74 90 2.6 7.8 0.00 0.00 0.00 24 904.8
20260508210016 74 113 1.7 6.1 0.00 0.00 0.00 23 904.8
20260508205017 73 90 2.6 6.1 0.00 0.00 0.00 25 904.8
20260508204017 73 90 2.6 7.8 0.00 0.00 0.00 24 904.8
20260508203016 72 90 2.6 6.1 0.00 0.00 0.00 27 904.8
20260508202017 72 90 1.7 6.1 0.00 0.00 0.00 25 904.8
20260508201037 71 90 2.6 5.2 0.00 0.00 0.00 24 904.7
20260508200016 72 45 2.6 7.8 0.00 0.00 0.00 25 904.8
20260508195016 71 45 3.5 10.4 0.00 0.00 0.00 25 904.7
20260508194037 72 90 3.5 10.4 0.00 0.00 0.00 24 904.7
20260508193036 71 0 3.5 9.6 0.00 0.00 0.00 24 904.7
20260508192016 72 90 3.5 8.7 0.00 0.00 0.00 23 904.7
20260508191017 72 90 2.6 7.0 0.00 0.00 0.00 23 904.7
20260508190016 72 68 2.6 6.1 0.00 0.00 0.00 25 904.7
20260508185016 71 68 4.3 8.7 0.00 0.00 0.00 23 904.6
20260508184017 72 68 4.3 11.3 0.00 0.00 0.00 23 904.7
20260508183016 71 90 3.5 12.2 0.00 0.00 0.00 23 904.6
20260508182017 72 68 3.5 11.3 0.00 0.00 0.00 23 904.7
20260508181016 72 45 3.5 8.7 0.00 0.00 0.00 22 904.7
20260508180016 71 90 3.5 7.0 0.00 0.00 0.00 23 904.6
20260508175016 71 90 3.5 9.6 0.00 0.00 0.00 24 904.7
20260508174016 70 293 1.7 4.3 0.00 0.00 0.00 23 904.6
20260508173016 70 68 3.5 7.0 0.00 0.00 0.00 23 904.6
20260508172016 70 315 1.7 6.1 0.00 0.00 0.00 24 904.6
20260508171016 69 90 2.6 7.8 0.00 0.00 0.00 25 904.6
20260508170017 68 90 1.7 7.0 0.00 0.00 0.00 27 904.6
20260508165036 67 68 3.5 10.4 0.00 0.00 0.00 26 904.6
20260508164015 66 270 1.7 3.5 0.00 0.00 0.00 32 904.6
20260508163016 64 68 1.7 4.3 0.00 0.00 0.00 33 904.5
20260508162015 63 90 1.7 7.0 0.00 0.00 0.00 34 904.6
20260508161016 63 68 1.7 7.8 0.00 0.00 0.00 35 904.6
20260508160035 62 113 1.7 11.3 0.00 0.00 0.00 35 904.5
20260508155016 62 338 2.6 7.8 0.00 0.00 0.00 35 904.5
20260508154015 61 0 1.7 7.0 0.00 0.00 0.00 34 904.5
20260508153015 61 0 1.7 5.2 0.00 0.00 0.00 35 904.5
20260508152015 61 68 1.7 5.2 0.00 0.00 0.00 34 904.6
20260508151036 61 68 1.7 4.3 0.00 0.00 0.00 37 904.6
20260508150017 60 293 1.7 6.1 0.00 0.00 0.00 37 904.6
20260508145039 59 248 1.7 3.5 0.00 0.00 0.00 36 904.6
20260508144017 58 45 0.9 3.5 0.00 0.00 0.00 40 904.6
20260508143017 57 135 0.9 4.3 0.00 0.00 0.00 39 904.6
20260508142038 56 23 0.9 3.5 0.00 0.00 0.00 39 904.6
20260508141017 56 158 0.9 3.5 0.00 0.00 0.00 38 904.6
20260508140017 55 293 1.7 2.6 0.00 0.00 0.00 39 904.6
20260508135018 55 68 0.9 2.6 0.00 0.00 0.00 39 904.6
20260508134017 54 270 0.9 4.3 0.00 0.00 0.00 41 904.6
20260508133017 54 315 1.7 6.1 0.00 0.00 0.00 42
20260508132017 52 248 0.9 3.5 0.00 0.00 0.00 44
20260508131017 50 23 0.9 2.6 0.00 0.00 0.00 47
20260508130017 49 0 0.9 2.6 0.00 0.00 0.00 49
20260508125037 47 293 0.9 1.7 0.00 0.00 0.00 50
20260508124017 46 180 0.9 1.7 0.00 0.00 0.00 51
20260508123016 45 248 0.9 2.6 0.00 0.00 0.00 54
20260508122017 43 338 0.9 2.6 0.00 0.00 0.00 56
20260508121017 42 0.0 1.7 0.00 0.00 0.00 59
20260508120038 42 0.0 1.7 0.00 0.00 0.00 63
20260508115017 42 90 0.9 1.7 0.00 0.00 0.00 61
20260508114016 42 0.0 0.0 0.00 0.00 0.00 60
20260508113017 42 0.0 0.0 0.00 0.00 0.00 59
20260508112536 42 0.0 0.0 0.00 0.00 0.00 58
20260508111517 42 0.0 0.9 0.00 0.00 0.00 57
20260508110516 42 0 0.9 2.6 0.00 0.00 0.00 57
20260508105516 43 0.0 0.0 0.00 0.00 0.00 56
20260508104536 43 0.0 1.7 0.00 0.00 0.00 55
20260508103517 43 0.0 1.7 0.00 0.00 0.00 55
20260508102516 44 0.0 0.9 0.00 0.00 0.00 54
20260508101516 44 0.0 0.0 0.00 0.00 0.00 53
20260508100516 44 0.0 0.9 0.00 0.00 0.00 52
20260508095537 44 0.0 0.9 0.00 0.00 0.00 51
20260508094516 45 0.0 0.9 0.00 0.00 0.00 50
20260508093516 45 0.0 0.0 0.00 0.00 0.00 49
20260508092516 45 0.0 0.0 0.00 0.00 0.00 49
20260508091537 45 0.0 1.7 0.00 0.00 0.00 50
20260508090516 45 0.0 0.0 0.00 0.00 0.00 49
20260508085516 45 0.0 0.9 0.00 0.00 0.00 49
20260508084517 45 270 0.9 2.6 0.00 0.00 0.00 49
20260508083515 45 23 0.9 1.7 0.00 0.00 0.00 49
20260508082536 46 0.0 1.7 0.00 0.00 0.00 49
20260508081516 46 90 0.9 1.7 0.00 0.00 0.00 48
20260508080536 46 0.0 1.7 0.00 0.00 0.00 49
20260508075515 46 248 0.9 2.6 0.00 0.00 0.00 48
20260508074517 45 0.0 1.7 0.00 0.00 0.00 49
20260508073515 45 225 0.9 3.5 0.00 0.00 0.00 49
20260508072515 44 203 0.9 2.6 0.00 0.00 0.00 51
20260508071537 43 0.0 1.7 0.00 0.00 0.00 53
20260508070515 43 113 0.9 2.6 0.00 0.00 0.00 54
20260508065517 43 0.0 1.7 0.00 0.00 0.00 56
20260508064517 42 0.0 0.0 0.00 0.00 0.00 57
20260508063518 42 0.0 0.0 0.00 0.00 0.00 59